Starlink 5883

operational
NORAD ID: 55956 Int'l Des: 2023-037 Owner: SPXS Country: US Constellation: starlink
LEOCIRCULAR

About Starlink 5883

Description loading...

Live Position

Loading 3D Globe...

Upcoming Passes

Altitude History

Altitude vs Time

uPlot chart will show altitude changes over time

Two-Line Element Set

1 55956U 23037AU 25350.75808307 .00000796 00000-0 74519-4 0 9990
2 55956 69.9996 113.4441 0003247 270.0304 90.0483 14.98330623152056
Epoch: Dec 16, 2025 • Age: 14 hours

Current Status

Altitude 595.3 km
Velocity 7.56 km/s
Sub-Earth Point -70.09°S, 174.77°E
Launch Date Mar 17, 2023
Age 2.7 years
Type internet

Technical Details

Classification Payload
Mass 305.00 kg
Dry Mass 290.00 kg
Total Mass 305.00 kg
Length 0.20 m
Diameter 2.80 m
Span 9.00 m
Shape Box + pan
Manufacturer SPXS
Bus Type Starlink
Phase Status In Orbit
Owner/State SPXS/US

Large Constellations

Loading constellations...